Location: Oberwangen
(47.4286°N, 8.9679°E)
Time: 15:02:11
(UTC+00:00)

Cosmos 1607 - Pass Details

Date: 18 October 2021
Orbit: 918 x 984 km, 65.0° (Epoch: 03 December)

Event Time Altitude Azimuth Distance (km) Brightness Sun altitude
Rises 18:15:12 0° 318° (NW) 3,657 7.7 -18.4°
Reaches altitude 10° 18:17:55 10° 312° (NW) 2,697 7.1 -18.9°
Maximum altitude 18:23:43 40° 245° (WSW) 1,358 5.2 -19.8°
Drops below altitude 10° 18:29:24 10° 177° (S) 2,638 6.2 -20.8°
Sets 18:32:02 0° 170° (S) 3,568 6.8 -21.2°
